Weather History for KCJR - November, 2012

Change the Weather History Date:

Sunday, November 25, 2012

  Actual Average (KCHO) Record (KCHO)
Temperature  
Mean Temperature 34 °F 44 °F  
Max Temperature 44 °F 54 °F - ()
Min Temperature 24 °F 34 °F - ()
Degree Days  
Heating Degree Days 31 21  
Month to date heating degree days 430  
Since 1 July heating degree days 779  
Cooling Degree Days 0 0  
Month to date cooling degree days 0  
Year to date cooling degree days 1034  
Moisture  
Dew Point 22 °F    
Average Humidity 70    
Maximum Humidity 93    
Minimum Humidity 37    
Precipitation  
Precipitation 0.00 in 0.13 in - ()
Month to date precipitation 3.16  
Year to date precipitation 38.89  
Sea Level Pressure  
Sea Level Pressure 30.02 in    
Wind  
Wind Speed 2 mph (SW)    
Max Wind Speed 8 mph    
Max Gust Speed -    
Visibility 10 miles    
Events      
T = Trace of Precipitation, MM = Missing Value Source: NWS Daily Summary

Daily Weather History Graph

Daily Weather History Graph

Search for Another Location

Airport or City:

Trip Planner

Search our weather history database for the weather conditions in past years. The results will help you decide how hot, cold, wet, or windy it might be!

Date:

Astronomy

Nov. 25, 2012 Rise Set
Actual Time 7:04 AM EST 4:52 PM EST
Civil Twilight 6:35 AM EST 5:21 PM EST
Nautical Twilight 6:02 AM EST 5:54 PM EST
Astronomical Twilight 5:31 AM EST 6:25 PM EST
Moon 3:07 PM EST (11/25) 4:18 AM EST (11/25)
Length of Visible Light 10h 45m
Length of Day
9h 47m
Waxing Gibbous, 93% of the Moon is Illuminated
Nov 25
Waxing Gibbous
Nov 28
Full
Dec 6
Last Quarter
Dec 13
New
Dec 20
First Quarter

Hourly Weather History & Observations

Time (EST) Temp. Windchill Dew Point Humidity Pressure Visibility Wind Dir Wind Speed Gust Speed Precip Events Conditions
12:15 AM 28.4 °F 24.6 °F 19.4 °F 69% 30.06 in 10.0 mi WNW 3.5 mph - N/A   Clear
12:35 AM 26.6 °F - 19.4 °F 74% 30.05 in 10.0 mi Calm Calm - N/A   Clear
12:55 AM 26.6 °F - 21.2 °F 80% 30.05 in 10.0 mi Calm Calm - N/A   Clear
1:15 AM 26.6 °F - 21.2 °F 80% 30.05 in 10.0 mi Calm Calm - N/A   Clear
1:35 AM 26.6 °F 22.6 °F 21.2 °F 80% 30.06 in 10.0 mi South 3.5 mph - N/A   Clear
1:55 AM 28.4 °F 24.6 °F 19.4 °F 69% 30.06 in 10.0 mi WNW 3.5 mph - N/A   Clear
2:15 AM 24.8 °F - 19.4 °F 80% 30.06 in 10.0 mi Calm Calm - N/A   Clear
2:35 AM 24.8 °F - 21.2 °F 86% 30.07 in 10.0 mi Calm Calm - N/A   Clear
2:55 AM 24.8 °F - 21.2 °F 86% 30.06 in 10.0 mi Calm Calm - N/A   Clear
3:15 AM 26.6 °F 22.6 °F 21.2 °F 80% 30.07 in 10.0 mi South 3.5 mph - N/A   Clear
3:35 AM 26.6 °F 21.2 °F 21.2 °F 80% 30.05 in 10.0 mi NNW 4.6 mph - N/A   Clear
3:55 AM 26.6 °F - 21.2 °F 80% 30.06 in 10.0 mi Calm Calm - N/A   Clear
4:15 AM 26.6 °F - 21.2 °F 80% 30.05 in 10.0 mi Calm Calm - N/A   Clear
4:35 AM 26.6 °F - 21.2 °F 80% 30.07 in 10.0 mi Calm Calm - N/A   Clear
4:55 AM 26.6 °F - 21.2 °F 80% 30.07 in 10.0 mi Calm Calm - N/A   Clear
5:15 AM 26.6 °F - 23.0 °F 86% 30.06 in 10.0 mi Calm Calm - N/A   Clear
5:35 AM 26.6 °F - 21.2 °F 80% 30.07 in 10.0 mi Calm Calm - N/A   Clear
5:55 AM 26.6 °F - 21.2 °F 80% 30.07 in 10.0 mi Calm Calm - N/A   Clear
6:15 AM 28.4 °F - 23.0 °F 80% 30.08 in 10.0 mi Calm Calm - N/A   Clear
6:35 AM 28.4 °F - 21.2 °F 74% 30.08 in 10.0 mi Calm Calm - N/A   Clear
6:55 AM 26.6 °F - 23.0 °F 86% 30.08 in 10.0 mi Calm Calm - N/A   Clear
7:15 AM 26.6 °F - 23.0 °F 86% 30.08 in 10.0 mi Calm Calm - N/A   Clear
7:35 AM 28.4 °F - 24.8 °F 86% 30.09 in 10.0 mi Calm Calm - N/A   Clear
7:55 AM 28.4 °F - 23.0 °F 80% 30.10 in 10.0 mi Calm Calm - N/A   Clear
8:15 AM 30.2 °F - 21.2 °F 69% 30.08 in 10.0 mi Calm Calm - N/A   Clear
8:35 AM 30.2 °F - 24.8 °F 80% 30.09 in 10.0 mi Calm Calm - N/A   Clear
8:55 AM 32.0 °F - 24.8 °F 75% 30.09 in 10.0 mi Calm Calm - N/A   Scattered Clouds
9:15 AM 33.8 °F - 23.0 °F 65% 30.08 in 10.0 mi Calm Calm - N/A   Scattered Clouds
9:35 AM 33.8 °F - 23.0 °F 65% 30.10 in 10.0 mi Calm Calm - N/A   Clear
9:55 AM 33.8 °F - 23.0 °F 65% 30.10 in 10.0 mi Calm Calm - N/A   Clear
10:15 AM 35.6 °F 32.8 °F 23.0 °F 60% 30.10 in 10.0 mi WSW 3.5 mph - N/A   Clear
10:55 AM 35.6 °F 32.8 °F 23.0 °F 60% 30.07 in 10.0 mi SW 3.5 mph - N/A   Clear
11:15 AM 37.4 °F 33.8 °F 21.2 °F 52% 30.06 in 10.0 mi South 4.6 mph - N/A   Scattered Clouds
11:35 AM 37.4 °F 32.8 °F 21.2 °F 52% 30.06 in 10.0 mi SW 5.8 mph - N/A   Scattered Clouds
11:55 AM 39.2 °F 35.0 °F 21.2 °F 49% 30.04 in 10.0 mi SW 5.8 mph - N/A   Clear
12:15 PM 41.0 °F 37.1 °F 21.2 °F 45% 30.03 in 10.0 mi SW 5.8 mph - N/A   Clear
12:35 PM 42.8 °F - 21.2 °F 42% 30.02 in 10.0 mi Calm Calm - N/A   Clear
12:55 PM 41.0 °F 39.0 °F 21.2 °F 45% 30.01 in 10.0 mi SSW 3.5 mph - N/A   Clear
1:15 PM 41.0 °F 38.0 °F 21.2 °F 45% 30.00 in 10.0 mi SSW 4.6 mph - N/A   Clear
1:35 PM 41.0 °F 37.1 °F 21.2 °F 45% 29.99 in 10.0 mi SW 5.8 mph - N/A   Clear
1:55 PM 41.0 °F 36.4 °F 21.2 °F 45% 29.99 in 10.0 mi SSW 6.9 mph - N/A   Clear
2:15 PM 41.0 °F 38.0 °F 21.2 °F 45% 29.99 in 10.0 mi South 4.6 mph - N/A   Scattered Clouds
2:35 PM 44.6 °F 42.2 °F 19.4 °F 37% 29.97 in 10.0 mi South 4.6 mph - N/A   Scattered Clouds
2:55 PM 44.6 °F 40.7 °F 19.4 °F 37% 29.96 in 10.0 mi SSW 6.9 mph - N/A   Clear
3:15 PM 44.6 °F 40.2 °F 19.4 °F 37% 29.96 in 10.0 mi SSW 8.1 mph - N/A   Clear
3:35 PM 44.6 °F 40.7 °F 19.4 °F 37% 29.96 in 10.0 mi SSW 6.9 mph - N/A   Clear
3:55 PM 44.6 °F 40.2 °F 19.4 °F 37% 29.96 in 10.0 mi SSW 8.1 mph - N/A   Clear
4:15 PM 42.8 °F 40.1 °F 19.4 °F 39% 29.96 in 10.0 mi South 4.6 mph - N/A   Clear
4:35 PM 42.8 °F - 19.4 °F 39% 29.96 in 10.0 mi Calm Calm - N/A   Clear
4:55 PM 39.2 °F - 21.2 °F 49% 29.96 in 10.0 mi Calm Calm - N/A   Clear
5:15 PM 35.6 °F - 23.0 °F 60% 29.95 in 10.0 mi Calm Calm - N/A   Clear
5:35 PM 33.8 °F - 26.6 °F 75% 29.96 in 10.0 mi Calm Calm - N/A   Clear
5:55 PM 32.0 °F - 24.8 °F 75% 29.95 in 10.0 mi Calm Calm - N/A   Clear
6:15 PM 30.2 °F - 28.4 °F 93% 29.96 in 10.0 mi Calm Calm - N/A   Clear
6:35 PM 30.2 °F - 26.6 °F 86% 29.96 in 10.0 mi Calm Calm - N/A   Clear
6:55 PM 30.2 °F - 24.8 °F 80% 29.96 in 10.0 mi Calm Calm - N/A   Clear
7:15 PM 28.4 °F - 26.6 °F 93% 29.96 in 10.0 mi Calm Calm - N/A   Clear
7:35 PM 30.2 °F - 24.8 °F 80% 29.96 in 10.0 mi Calm Calm - N/A   Clear
7:55 PM 28.4 °F - 24.8 °F 86% 29.96 in 10.0 mi Calm Calm - N/A   Clear
8:15 PM 28.4 °F - 24.8 °F 86% 29.97 in 10.0 mi Calm Calm - N/A   Clear
8:35 PM 28.4 °F - 23.0 °F 80% 29.97 in 10.0 mi Calm Calm - N/A   Clear
8:55 PM 30.2 °F - 23.0 °F 75% 29.97 in 10.0 mi Calm Calm - N/A   Clear
9:15 PM 28.4 °F - 23.0 °F 80% 29.98 in 10.0 mi Calm Calm - N/A   Clear
9:35 PM 28.4 °F - 23.0 °F 80% 29.98 in 10.0 mi Calm Calm - N/A   Clear
9:55 PM 26.6 °F - 23.0 °F 86% 29.98 in 10.0 mi Calm Calm - N/A   Clear
10:15 PM 26.6 °F - 21.2 °F 80% 29.98 in 10.0 mi Calm Calm - N/A   Clear
10:35 PM 26.6 °F - 21.2 °F 80% 29.98 in 10.0 mi Calm Calm - N/A   Clear
10:55 PM 26.6 °F - 23.0 °F 86% 29.99 in 10.0 mi Calm Calm - N/A   Clear
11:15 PM 26.6 °F - 23.0 °F 86% 30.00 in 10.0 mi Calm Calm - N/A   Clear
11:35 PM 26.6 °F - 23.0 °F 86% 30.00 in 10.0 mi Calm Calm - N/A   Clear
11:55 PM 24.8 °F - 21.2 °F 86% 30.00 in 10.0 mi Calm Calm - N/A   Clear